Hourly Data Report for October 12, 2014

All times are specified in Local Standard Time (LST). Add 1 hour to adjust for Daylight Saving Time where and when it is observed.

KITCHENER/WATERLOO
ONTARIO

43°27'39.000" N
80°22'43.000" W
321.60 m
6144239
71368
YKF

Download Data

Hourly Data (October 2014)
Hourly Data Report for October 12, 2014
Temp Definition
°C
Dew Point Temp Definition
°C
Rel Hum Definition
%
Wind Dir Definition
10's deg

Wind Spd Definition
km/h
Visibility Definition
km
Stn Press Definition
kPa
Hmdx Definition


Wind Chill Definition


Weather Definition


TIME
00:00 Legend Double Dagger -1.6 -2.0 97   0 8.1 98.53     Fog
01:00 Legend Double Dagger -1.9 -2.2 98 34 5 14.5 98.52   -4 LegendNANA
02:00 Legend Double Dagger -1.6 -1.9 98 5 4 11.3 98.52   -3 LegendNANA
03:00 Legend Double Dagger -1.8 -1.9 99   0 3.6 98.53     Fog
04:00 Legend Double Dagger -2.4 -2.5 99 12 4 8.1 98.56   -4 Fog
05:00 Legend Double Dagger -1.9 -2.1 99   0 3.2 98.57     LegendNANA
06:00 Legend Double Dagger -2.8 -2.9 99 35 5 8.1 98.58   -5 Fog
07:00 Legend Double Dagger -2.4 -2.7 98 33 4 8.1 98.62   -4 Fog
08:00 Legend Double Dagger 1.0 0.7 98   0 11.3 98.65     LegendNANA
09:00 Legend Double Dagger 6.3 3.4 82   0 16.1 98.66     LegendNANA
10:00 Legend Double Dagger 9.8 1.7 57 11 5 16.1 98.63     LegendNANA
11:00 Legend Double Dagger 11.7 1.5 50 10 15 16.1 98.60     LegendNANA
12:00 Legend Double Dagger 12.8 2.4 49 11 15 16.1 98.52     LegendNANA
13:00 Legend Double Dagger 13.1 2.2 47 14 21 16.1 98.44     LegendNANA
14:00
15:00 Legend Double Dagger 13.1 0.8 43 13 18 16.1 98.31     LegendNANA
16:00
17:00 Legend Double Dagger 11.1 3.4 59 11 17 16.1 98.25     LegendNANA
18:00 Legend Double Dagger 7.0 2.9 75 11 13 LegendMM 98.24     LegendNANA
19:00 Legend Double Dagger 4.9 2.6 85 8 9 16.1 98.22     LegendNANA
20:00
21:00 Legend Double Dagger 3.2 2.2 93 7 9 16.1 98.21     LegendNANA
22:00 Legend Double Dagger 3.2 2.6 96 9 5 16.1 98.16     LegendNANA
23:00 Legend Double Dagger 3.9 3.5 97 7 8 11.3 98.10     LegendNANA

Notes on Data Quality.

Legend

  • E = Estimated
  • M = Missing
  • NA = Not Available
  • ‡ = Partner data that is not subject to review by the National Climate Archives
Date modified: